Location: Colonia Mina de C?rbuni
(46.1667°N, 22.7167°E)
Time: 15:19:21
(UTC+00:00)

Vanguard 1 Rocket - Pass Details

Date: 16 April 2024
Orbit: 650 x 4220 km, 34.3° (Epoch: 22 May)

Event Time Altitude Azimuth Distance (km) Brightness Sun altitude
Rises 21:17:46 0° 262° (W) 4,173 10.9 -31.1°
Reaches altitude 10° 21:20:15 10° 254° (WSW) 3,518 10.4 -31.2°
Enters shadow 21:26:06 37° 217° (SW) 2,696 9.4 -31.6°
